SAST,Max TemperatureF,Mean TemperatureF,Min TemperatureF,Max Dew PointF,MeanDew PointF,Min DewpointF,Max Humidity, Mean Humidity, Min Humidity, Max Sea Level PressureIn, Mean Sea Level PressureIn, Min Sea Level PressureIn, Max VisibilityMiles, Mean VisibilityMiles, Min VisibilityMiles, Max Wind SpeedMPH, Mean Wind SpeedMPH, Max Gust SpeedMPH,PrecipitationIn, CloudCover, Events, WindDirDegrees
2012-1-1,71,64,57,61,59,55,94,79,64,29.98,29.91,29.86,6,6,6,14,7,,0.00,3,,257
2012-1-2,75,68,60,64,59,55,94,70,50,29.95,29.88,29.80,6,6,6,12,5,,0.00,2,,208
2012-1-3,73,68,62,63,60,57,94,77,61,30.01,29.96,29.89,6,6,6,18,6,,0.00,4,,210
2012-1-4,73,68,62,63,60,57,94,79,64,30.09,29.98,29.92,6,6,6,13,5,,0.00,5,,215
2012-1-5,73,66,60,61,59,57,88,75,60,30.09,30.05,30.01,6,6,6,14,5,,0.00,3,,96
2012-1-6,78,68,57,63,58,54,94,72,47,30.09,30.04,30.01,,,,13,4,,0.00,,,214
2012-1-7,78,68,59,66,60,54,94,74,50,30.09,30.03,29.98,6,6,6,14,6,,0.00,2,,104
2012-1-8,78,71,64,72,67,63,94,84,69,30.01,29.92,29.86,6,6,4,16,9,,0.00,5,Rain,114
2012-1-9,77,72,68,72,69,66,100,92,78,30.04,29.93,29.89,6,6,3,15,5,,0.00,6,,213
2012-1-10,77,70,62,68,65,61,100,82,57,30.01,29.92,29.83,6,6,6,21,6,,0.00,5,,98
2012-1-11,84,76,68,70,68,66,100,81,58,29.86,29.79,29.74,6,6,6,13,5,,0.00,4,,197
2012-1-12,78,70,62,68,66,63,100,84,69,29.89,29.78,29.74,6,6,5,12,5,,0.00,5,,178
2012-1-13,80,72,64,66,63,55,94,76,42,30.04,29.88,29.77,6,6,5,20,7,,0.00,4,Rain,147
2012-1-14,71,66,62,63,61,61,94,83,69,30.15,30.08,30.04,6,6,6,12,5,,0.00,6,,137
2012-1-15,78,68,59,68,64,57,94,83,65,30.12,30.08,30.04,6,6,6,21,9,,0.00,3,,97
2012-1-16,89,76,62,72,65,59,100,75,36,30.01,29.87,29.74,6,5,4,13,7,,0.00,4,,129
2012-1-17,77,74,69,72,71,70,100,91,78,29.86,29.82,29.77,6,5,3,15,8,,0.00,4,Rain,252
2012-1-18,86,78,69,72,71,70,100,89,62,29.86,29.82,29.74,6,5,2,12,3,,0.00,6,,185
2012-1-19,82,76,69,72,71,70,100,91,66,29.83,29.80,29.77,6,4,1,12,6,,0.00,6,Rain,240
2012-1-20,82,76,71,72,70,68,100,84,62,29.89,29.82,29.80,6,6,3,12,7,,0.00,6,Rain,210
2012-1-21,75,72,68,72,69,66,100,96,83,29.89,29.86,29.80,6,4,1,23,7,,0.00,6,Fog-Rain,124
2012-1-22,80,73,66,70,66,64,100,82,61,29.89,29.81,29.74,6,6,6,15,10,,0.00,5,Rain,103
2012-1-23,71,68,64,68,64,59,100,91,69,29.95,29.88,29.80,6,5,1,17,7,33,0.00,5,Rain-Thunderstorm,272
2012-1-24,71,68,64,66,63,59,100,87,73,30.06,30.00,29.95,6,6,4,15,11,,0.00,5,Rain,185
2012-1-25,73,68,62,63,60,55,100,77,53,30.06,29.99,29.92,6,6,5,21,7,,0.00,3,Rain,98
2012-1-26,73,65,57,64,61,57,100,83,69,30.06,29.96,29.92,6,6,6,13,5,,0.00,3,,117
2012-1-27,77,68,59,68,64,57,100,87,65,30.06,30.02,29.98,6,6,6,16,6,,0.00,4,,101
2012-1-28,77,70,62,68,65,61,100,86,69,30.01,29.95,29.92,6,6,6,18,6,25,0.00,3,,103
2012-1-29,84,72,60,68,62,50,100,75,32,29.92,29.76,29.65,6,6,6,12,6,,0.00,1,,174
2012-1-30,77,70,62,66,63,57,94,79,65,29.95,29.76,29.59,6,6,6,26,10,34,0.00,3,,259
2012-1-31,73,66,60,68,65,61,100,91,69,29.95,29.85,29.74,6,6,4,13,5,,0.00,3,Rain-Thunderstorm,110